GSLV R/B

Last updated on Mon Sep 21 2026 00:02:09 GMT+0000 (Coordinated Universal Time)

1 54149U 22138AN 26263.47769186 .00001257 00000+0 10457-3 0 9990 2 54149 87.3730 100.9454 0022014 156.4060 203.8187 14.97595013213073
UTC large
Height (km)
Speed (km/s)
/
Latitude / Longitude
Inclination (degrees)
Orbital Period (minutes)
Azimuth
Elevation
Range (km)
Doppler Factor

Next 0 passes for location: London (51.5072 / 0.1276)

No passes found over London.
GSLV R/B